DW8546 Weather Reports


Display with metric or nautical units.
time (UTC)temp
F
wind
direction
speed
MPH
gust
MPH
rain 1hr
in
rain 24hr
in
rain mn
in
humidity
%
barometer
mb
20260505101550 42 224 0.0 1.0 0.00 0.00 0.00 68 1003.9
20260505100052 43 22 0.0 1.0 0.00 0.00 0.00 67 1003.8
20260505094547 43 153 1.0 4.0 0.00 0.00 0.00 67 1003.8
20260505093047 43 71 0.0 2.0 0.00 0.00 0.00 67 1003.6
20260505091559 44 117 0.0 1.0 0.00 0.00 0.00 66 1003.7
20260505090043 44 33 0.0 1.0 0.00 0.00 0.00 65 1003.7
20260505084539 45 271 0.0 3.0 0.00 0.00 0.00 64 1004.0
20260505083036 45 224 0.0 2.0 0.00 0.00 0.00 63 1004.2
20260505081537 46 229 0.0 2.0 0.00 0.00 0.00 62 1004.2
20260505080031 47 224 0.0 1.0 0.00 0.00 0.00 61 1004.3
20260505074528 47 182 0.0 1.0 0.00 0.00 0.00 60 1004.2
20260505073025 48 224 0.0 1.0 0.00 0.00 0.00 58 1004.1
20260505071525 49 228 0.0 2.0 0.00 0.00 0.00 57 1004.1
20260505070023 49 221 0.0 3.0 0.00 0.00 0.00 58 1004.1
20260505064520 49 235 0.0 2.0 0.00 0.00 0.00 58 1004.0
20260505063018 49 334 0.0 4.0 0.00 0.00 0.00 59 1003.8
20260505061640 48 230 0.0 2.0 0.00 0.00 0.00 60 1003.7
20260505060014 49 29 0.0 2.0 0.00 0.00 0.00 59 1003.7
20260505054513 50 195 0.0 0.0 0.00 0.00 0.00 57 1003.4
20260505053012 50 210 0.0 3.0 0.00 0.00 0.00 57 1003.4
20260505051530 50 243 0.0 2.0 0.00 0.00 0.00 55 1003.4
20260505041510 53 231 0.0 0.0 0.00 0.00 0.00 51 1002.8
20260505040013 54 238 0.0 0.0 0.00 0.00 0.00 49 1002.7
20260505034513 55 235 0.0 0.0 0.00 0.00 0.00 47 1002.3
20260505033008 56 44 0.0 0.0 0.00 0.00 0.00 48 1002.0
20260505031508 56 229 0.0 0.0 0.00 0.00 0.00 45 1001.7
20260505030008 57 229 0.0 3.0 0.00 0.00 0.00 42 1001.5
20260505024510 58 230 0.0 2.0 0.00 0.00 0.00 42 1001.2
20260505023006 59 88 0.0 2.0 0.00 0.00 0.00 40 1001.2
20260505021506 60 42 0.0 2.0 0.00 0.00 0.00 39 1001.0
20260505020008 62 40 0.0 1.0 0.00 0.00 0.00 36 1000.8
20260505014505 63 19 0.0 1.0 0.00 0.00 0.00 35 1000.8
20260505013003 64 105 0.0 1.0 0.00 0.00 0.00 33 1000.9
20260505011504 65 256 0.0 3.0 0.00 0.00 0.00 32 1000.9
20260505010002 65 123 0.0 6.0 0.00 0.00 0.00 29 1000.9
20260505004504 65 46 1.0 6.0 0.00 0.00 0.00 29 1001.0
20260505003100 65 41 0.0 7.0 0.00 0.00 0.00 30 1001.1
20260505001605 64 221 2.0 6.0 0.00 0.00 0.00 29 1001.2
20260504234557 66 169 1.0 9.0 0.00 0.00 0.00 28 1001.3
20260504233108 66 68 5.0 11.0 0.00 0.00 0.00 27 1001.5
20260504231603 69 30 6.0 15.0 0.00 0.00 0.00 25 1001.4
20260504230058 70 44 2.0 14.0 0.00 0.00 0.00 24 1000.9
20260504224554 70 94 6.0 12.0 0.00 0.00 0.00 23 1001.1
20260504223051 70 83 5.0 13.0 0.00 0.00 0.00 24 1001.1
20260504221548 69 281 5.0 12.0 0.00 0.00 0.00 24 1001.3
20260504220047 67 8 5.0 10.0 0.00 0.00 0.00 26 1001.5
20260504214553 68 35 4.0 7.0 0.00 0.00 0.00 25 1001.9
20260504213043 66 360 3.0 7.0 0.00 0.00 0.00 26 1002.2
20260504211541 67 278 1.0 10.0 0.00 0.00 0.00 26 1002.5
20260504210044 67 93 3.0 11.0 0.00 0.00 0.00 25 1002.6
20260504204546 67 37 7.0 12.0 0.00 0.00 0.00 27 1002.7
20260504203050 66 287 3.0 10.0 0.00 0.00 0.00 26 1003.0
20260504201533 69 302 1.0 5.0 0.00 0.00 0.00 24 1003.2
20260504200032 68 182 1.0 9.0 0.00 0.00 0.00 25 1003.2
20260504194534 67 18 6.0 14.0 0.00 0.00 0.00 26 1003.3
20260504193029 67 342 4.0 9.0 0.00 0.00 0.00 26 1003.4
20260504191527 65 33 1.0 11.0 0.00 0.00 0.00 26 1003.7
20260504190025 66 48 6.0 14.0 0.00 0.00 0.00 25 1003.9
20260504184524 67 49 3.0 10.0 0.00 0.00 0.00 25 1003.9
20260504183030 67 151 4.0 9.0 0.00 0.00 0.00 24 1004.1
20260504181520 66 228 3.0 11.0 0.00 0.00 0.00 24 1004.2
20260504180019 66 128 3.0 10.0 0.00 0.00 0.00 25 1004.4
20260504174515 65 219 3.0 8.0 0.00 0.00 0.00 25 1004.5
20260504173013 65 62 5.0 12.0 0.00 0.00 0.00 26 1004.7
20260504171512 65 272 4.0 9.0 0.00 0.00 0.00 26 1004.8
20260504160104 59 20 0.0 3.0 0.00 0.00 0.00 35 1005.8